GFSFLT2_925_thetae_099.txt.gz
Theta_e
318 317 318 317 318 318 318 318 317 316 314 312 312 313 311 311 309 308 307 306 305 304 302 302 303 303 304
316 314 314 315 316 316 316 316 316 313 312 311 310 310 309 307 306 305 305 304 303 302 301 300 300 299 300
310 309 308 309 309 311 311 311 312 311 310 309 309 307 306 305 305 304 303 302 302 300 300 299 298 297 298
309 307 307 306 307 307 306 307 307 308 307 307 306 305 304 303 303 303 301 299 299 298 298 299 299 296 296
306 304 302 301 303 303 303 303 305 306 306 304 303 303 302 302 302 302 299 297 296 296 296 296 296 294 296
309 308 306 306 304 303 303 301 299 303 303 302 302 302 302 301 301 301 299 296 296 295 294 294 292 292 297
310 308 307 306 304 302 303 304 304 304 303 299 300 299 301 300 299 299 297 297 296 294 293 290 290 293 298
308 309 309 308 307 305 303 303 302 302 300 299 298 297 299 299 298 298 296 295 294 292 289 289 292 295 298
305 307 308 309 309 306 301 299 294 296 297 298 295 295 296 297 297 296 294 294 293 290 291 292 293 295 298
302 304 306 306 308 308 305 300 295 293 297 297 293 294 291 292 293 293 292 292 291 291 292 291 291 294 296
300 301 302 303 301 305 306 303 298 298 299 298 294 293 292 287 288 290 290 291 291 292 291 290 290 292 294
299 299 299 301 301 301 303 303 304 304 301 299 296 295 290 287 288 287 288 290 291 291 290 289 289 289 290
296 296 299 300 300 298 298 298 299 299 299 298 299 297 295 292 287 286 287 289 290 290 289 288 289 288 288
295 296 297 297 296 298 294 293 295 293 294 295 296 297 292 292 292 287 288 288 289 289 289 288 288 288 288
294 294 294 293 294 293 294 291 291 288 287 289 291 292 292 292 289 290 287 287 287 289 289 287 287 287 287
291 292 292 292 291 291 291 291 290 288 287 286 286 286 287 287 289 288 286 286 287 288 288 287 287 287 286
289 291 291 291 290 288 289 290 290 288 287 286 285 287 288 290 286 286 286 286 286 285 287 286 287 288 288

GFSFLT2_925_thetae_102.txt.gz
Theta_e
322 322 320 319 320 320 318 319 320 321 322 320 318 316 317 318 315 312 311 309 308 308 306 305 305 305 304
320 319 319 318 317 316 317 317 316 317 317 317 315 315 316 314 312 311 309 307 306 306 304 303 302 301 302
318 317 316 314 311 311 313 313 314 316 316 316 314 313 313 311 310 307 306 305 305 304 303 301 300 299 299
315 311 310 309 308 307 307 310 312 312 312 313 312 311 309 308 307 305 305 304 303 303 301 300 299 300 299
311 307 305 304 305 307 307 307 308 311 310 308 308 307 306 305 305 304 303 303 301 297 296 299 299 299 298
309 309 308 306 308 305 305 301 300 305 305 304 307 305 306 305 304 303 302 302 300 296 297 297 297 294 294
303 305 309 309 308 305 304 304 306 306 304 301 303 304 304 304 302 302 301 300 299 297 296 295 293 291 293
302 303 304 307 309 309 307 305 304 304 303 300 299 300 301 302 302 301 300 299 298 296 295 293 291 292 294
298 299 301 304 305 307 304 299 297 296 300 299 296 298 298 298 299 299 298 297 297 295 294 291 290 293 294
296 296 299 300 304 304 304 302 302 293 297 299 294 296 292 294 297 298 296 295 295 294 292 293 292 292 295
294 295 296 298 300 303 303 301 303 300 301 301 295 296 296 288 291 294 294 294 293 293 293 292 291 291 295
292 294 295 296 297 300 302 301 301 300 304 300 297 297 291 289 289 288 291 292 292 292 293 291 291 291 293
291 292 294 295 296 297 298 298 299 299 299 298 302 296 297 292 289 288 288 290 291 292 291 290 290 290 290
290 291 292 294 294 295 295 296 296 295 294 295 298 297 294 294 292 289 290 290 290 291 290 289 290 289 290
289 289 289 291 292 292 293 292 293 290 290 290 293 294 297 295 290 289 289 290 289 290 290 289 289 288 289
287 288 288 290 291 291 291 292 292 290 288 287 288 288 288 289 290 289 289 288 288 289 289 289 288 288 288
286 287 288 289 290 290 290 291 291 290 287 286 287 290 291 291 286 289 289 287 286 287 288 288 289 288 287

GFSFLT2_925_thetae_108.txt.gz
Theta_e
319 320 321 322 321 322 322 321 321 321 322 321 322 323 323 324 324 324 326 325 320 318 315 312 311 310 310
314 318 320 321 321 321 320 320 320 321 320 320 321 320 320 320 321 324 325 321 318 317 313 312 310 310 309
309 311 314 314 316 315 317 316 317 318 318 318 319 319 319 320 322 324 324 319 318 316 312 311 310 308 307
304 307 309 310 310 311 311 313 314 314 315 315 315 317 317 318 321 321 320 319 316 314 311 310 307 306 306
301 302 303 306 306 308 308 309 309 311 311 312 312 314 316 317 316 320 319 317 315 312 310 307 306 305 304
297 299 300 301 303 305 306 305 303 309 308 310 311 313 316 316 317 317 316 314 312 310 308 306 305 305 303
296 296 297 298 297 298 300 302 304 306 307 307 309 310 312 313 315 315 314 313 311 308 306 305 304 303 303
292 295 294 294 295 296 297 298 300 303 305 303 307 307 308 309 309 312 313 311 309 306 305 303 303 302 301
291 291 291 292 293 294 296 296 298 301 303 304 304 304 305 306 307 306 309 309 307 305 304 302 301 300 300
290 289 288 289 291 293 295 295 295 298 301 301 301 302 298 301 304 305 305 306 305 303 301 301 300 300 299
288 287 288 289 290 291 291 293 295 295 298 301 298 299 299 295 298 302 303 303 302 301 300 299 300 299 299
287 286 287 287 288 289 289 289 290 291 293 296 299 299 298 291 293 298 300 301 301 299 298 298 296 298 299
286 285 286 286 287 287 287 288 289 290 292 294 296 299 299 299 293 293 296 297 298 298 297 296 296 296 295
286 285 286 286 287 287 287 288 289 290 291 292 294 296 295 296 295 293 295 295 295 296 297 295 295 296 297
286 285 285 285 285 286 286 288 289 290 291 292 292 294 295 295 293 293 293 293 293 294 294 293 294 294 294
285 284 284 285 285 284 286 288 288 290 290 290 290 291 291 292 294 293 292 292 292 292 293 292 291 292 291
285 284 284 284 284 285 285 287 288 289 290 290 289 290 291 292 289 292 292 291 290 289 290 291 291 290 290

GFSFLT2_925_thetae_111.txt.gz
Theta_e
310 310 317 320 320 320 320 319 319 320 320 322 321 322 322 321 321 322 322 322 323 324 323 320 318 315 313
307 308 309 311 313 317 320 320 320 320 321 321 321 320 320 320 320 321 323 323 324 325 323 320 318 315 313
304 304 307 308 308 309 311 313 314 315 315 316 317 318 318 319 319 320 320 321 322 325 323 319 318 314 312
299 301 302 303 305 306 307 308 309 310 311 312 313 314 316 317 318 319 319 320 321 324 320 318 315 313 312
296 297 299 299 302 302 304 304 306 308 309 310 311 311 314 316 317 317 317 319 321 320 318 316 313 311 310
294 295 295 297 296 296 298 300 302 305 305 305 306 308 311 313 315 317 318 319 317 317 317 314 311 310 308
291 292 294 295 294 295 295 296 298 299 299 302 304 306 308 310 313 315 315 315 317 317 315 313 310 308 306
290 291 291 291 291 292 292 294 294 295 297 301 303 304 306 308 309 312 314 317 318 317 314 311 308 306 305
289 290 290 289 289 289 290 292 292 293 295 298 301 303 304 305 306 308 309 310 313 313 312 309 306 305 304
288 289 289 288 287 289 290 291 291 292 295 296 299 300 298 303 305 306 307 307 308 310 309 306 304 302 302
288 288 288 286 286 287 288 288 289 290 291 292 295 297 298 300 301 304 303 305 305 305 307 306 303 302 301
287 287 287 285 285 285 286 287 287 287 288 289 290 293 295 294 296 300 302 303 303 303 302 303 302 301 301
286 286 286 286 285 285 287 286 285 286 287 288 289 290 293 295 295 298 300 300 301 301 300 300 299 299 297
286 286 286 285 285 285 284 285 285 286 287 288 289 290 291 293 296 296 298 298 299 299 299 299 298 298 298
285 285 285 285 285 284 284 284 285 287 288 289 290 291 291 292 293 295 295 296 298 297 296 295 295 297 298
284 284 284 284 284 284 284 284 285 286 288 289 290 289 290 291 291 294 294 295 295 295 295 294 293 294 297
284 284 284 284 284 283 283 283 283 285 287 288 289 289 290 291 291 292 293 293 293 293 294 294 294 292 295